Regional Weather Roundup
Issued by NWS

Home | Current Version | Previous Version | Graphics & Text | Print | Product List | Glossary On
Versions: 1 2 3 4 5 6 7 8 9 10 11 12 13 14 15 16 17 18 19 20 21 22 23 24 25 26 27 28 29 30 31 32 33 34 35 36 37 38 39 40 41 42 43 44 45 46 47 48 49 50
000
ASUS43 KFSD 062302
RWRSD

WEATHER ROUNDUP FOR SOUTH DAKOTA
NATIONAL WEATHER SERVICE SIOUX FALLS SD
500 PM CST TUE DEC 06 2016

NOTE: "FAIR" INDICATES FEW OR NO CLOUDS BELOW 12,000 FEET WITH NO
SIGNIFICANT WEATHER AND/OR OBSTRUCTIONS TO VISIBILITY.


SDZ001>005-009-010-012>017-070000-
NORTHWEST AND NORTH CENTRAL SOUTH DAKOTA

CITY           SKY/WX    TMP DP  RH WIND       PRES   REMARKS
BUFFALO          N/A      6  -3  66 NW28      29.95R WCI -17
FAITH            N/A      5   0  79 NW23      30.00R WCI -17
MOBRIDGE       MOCLDY    11   2  67 NW30G39   29.94R WCI -11
$$

SDZ012>016-024>037-041>051-057-063-072>074-070000-
SOUTHWEST AND SOUTH CENTRAL SOUTH DAKOTA

CITY           SKY/WX    TMP DP  RH WIND       PRES   REMARKS
RAPID CTY ARPT CLEAR     13   1  59 N16G23    30.00R WCI  -3
PIERRE         CLOUDY    13   4  67 NW33G40   30.01S WCI  -9
CUSTER         CLEAR     12  -7  42 NW6       29.82R WCI   3
PHILIP         CLEAR     13   2  61 NW18G31   30.05R WCI  -4
PINE RIDGE     CLEAR     15   6  67 CALM      29.98R
SPEARFISH      FAIR      10   0  61 W16G24    29.96R WCI  -7
WINNER         FAIR      18   5  57 NW16      30.03R WCI   3
$$

SDZ004>011-016>023-039-040-070000-
NORTHEAST SOUTH DAKOTA

CITY           SKY/WX    TMP DP  RH WIND       PRES   REMARKS
ABERDEEN       CLOUDY    12   3  67 NW28G39   29.88R WCI  -9
WATERTOWN      LGT SNOW  12   7  80 W23G38    29.83R WCI  -7
SISSETON         N/A     15   8  73 NW30G43   29.75R WCI  -5
$$

SDZ017-020-022-023-036>040-048>070-070000-
SOUTHEAST SOUTH DAKOTA

CITY           SKY/WX    TMP DP  RH WIND       PRES   REMARKS
SIOUX FALLS    PTCLDY    18  10  71 W23G32    29.92R WCI   0
HURON          PTCLDY    14   6  70 NW25G32   29.97R WCI  -5
MITCHELL       CLEAR     18   8  65 NW26G37   29.99R WCI  -1
YANKTON        CLEAR    N/A N/A N/A W24G31    29.97R
$$

ABBREVIATIONS USED IN REMARKS
   TC - TEMPERATURE IN CELSIUS
  WCI - WIND CHILL INDEX
   HX - HEAT INDEX
  VSB - VISIBILITY





USA.gov is the U.S. government's official web portal to all federal, state and local government web resources and services.